This demonstration page uses our WeatherBlox Daily Observations layout. Learn more.

Left ArrowRight Arrow

Hourly Observations for January 11, 2016

Temp ( °F °C ) Dew Point ( °F °C ) Humidity (%) Winds ( mph kmh ) Pressure ( in mb ) Visibility ( mi km ) Precip ( " mm )
12:53 am 00:53 Mostly Clear 38 3.3 30 -1.1 73 73 SE 9 15 30.08 1019 10 16 0.00 0.00
1:53 am 01:53 Partly Cloudy 37 2.8 29 -1.7 73 73 ESE 8 13 30.06 1018 10 16 0.00 0.00
2:53 am 02:53 Clear 36 2.2 29 -1.7 76 76 NE 5 7 30.06 1018 10 16 0.00 0.00
3:53 am 03:53 Mostly Clear 33 0.6 29 -1.7 85 85 N 6 9 30.07 1018 10 16 0.00 0.00
4:53 am 04:53 Clear 32 0 28 -2.2 85 85 N 7 11 30.06 1018 10 16 0.00 0.00
5:53 am 05:53 Mostly Cloudy 31 -0.6 28 -2.2 89 89 N 5 7 30.06 1018 10 16 0.00 0.00
6:53 am 06:53 Mostly Clear 30 -1.1 27 -2.8 88 88 N 8 13 30.08 1019 10 16 0.00 0.00
7:53 am 07:53 Clear 29 -1.7 26 -3.3 89 89 N 7 11 30.11 1020 8 13 0.00 0.00
8:53 am 08:53 Sunny 32 0 28 -2.2 85 85 N 7 11 30.11 1020 8 13 0.00 0.00
9:53 am 09:53 Sunny 37 2.8 30 -1.1 76 76 N 7 11 30.14 1021 10 16 0.00 0.00
10:53 am 10:53 Sunny 43 6.1 31 -0.6 63 63 N 5 7 30.15 1021 10 16 0.00 0.00
11:53 am 11:53 Sunny 46 7.8 31 -0.6 56 56 N 9 15 30.14 1021 10 16 0.00 0.00
12:53 pm 12:53 Sunny 51 10.6 30 -1.1 44 44 N 7 11 30.10 1019 10 16 0.00 0.00
1:53 pm 13:53 Sunny 52 11.1 24 -4.4 34 34 NW 6 9 30.08 1019 10 16 0.00 0.00
2:53 pm 14:53 Sunny 53 11.7 24 -4.4 32 32 WNW 12 19 30.07 1018 10 16 0.00 0.00
3:53 pm 15:53 Sunny 54 12.2 23 -5 30 30 WNW 10 17 30.08 1019 10 16 0.00 0.00
4:53 pm 16:53 Sunny 52 11.1 23 -5 32 32 NW 13 20 30.10 1019 10 16 0.00 0.00
5:53 pm 17:53 Sunny 50 10 23 -5 35 35 WNW 8 13 30.13 1020 10 16 0.00 0.00
6:53 pm 18:53 Clear 41 5 25 -3.9 53 53 WNW 7 11 30.17 1022 10 16 0.00 0.00
7:53 pm 19:53 Clear 37 2.8 26 -3.3 65 65 NNW 8 13 30.20 1023 10 16 0.00 0.00
8:53 pm 20:53 Clear 34 1.1 24 -4.4 67 67 W 8 13 30.22 1023 10 16 0.00 0.00
9:53 pm 21:53 Clear 34 1.1 23 -5 64 64 NW 7 11 30.21 1023 10 16 0.00 0.00
10:53 pm 22:53 Clear 30 -1.1 23 -5 75 75 NW 6 9 30.22 1023 10 16 0.00 0.00
11:53 pm 23:53 Clear 30 -1.1 23 -5 75 75 NW 5 7 30.22 1023 10 16 0.00 0.00

Powered by AerisWeather